Station Historical Data
 
Daily Summary for June 22, 2018 Units:  English    Metric   Both
Next Day »
Daily Weekly Monthly Yearly Custom
  Current: High: Low: Average:
Temperature: 64.3 °F 68.5 °F 64.3 °F 66.7 °F
Dew Point: 36.8 °F 42.4 °F 36.8 °F 40 °F
Humidity: 36% 39% 36% 38%
Wind Speed: 5.0mph 12.0mph 0.0mph 3.4mph
Wind Gust: 7.0mph 14.0mph - -
WindESE - - East
Pressure: 29.92 in 29.93 in 29.92 in -
Precipitation: 0.00 in      
Historical Graphs
 
 
Tabular Data for June 22, 2018
Time Temperature Dew Point Pressure Wind Wind Speed Wind Gust Humidity Rainfall Rate (Hourly) solar Conditions
00:04 68.5 °F 41.9 °F 29.93 in East 7.0 mph 13.0 mph 38% 0.00 in 0.00 W/m2
00:09 68.4 °F 41.8 °F 29.93 in East 7.0 mph 13.0 mph 38% 0.00 in 0.00 W/m2
00:14 68.3 °F 42.4 °F 29.93 in East 2.0 mph 13.0 mph 39% 0.00 in 0.00 W/m2
00:19 68.2 °F 42.3 °F 29.93 in ESE 12.0 mph 13.0 mph 39% 0.00 in 0.00 W/m2
00:24 68.1 °F 42.2 °F 29.93 in ESE 1.0 mph 11.0 mph 39% 0.00 in 0.00 W/m2
00:29 68.0 °F 42.1 °F 29.93 in East 5.0 mph 13.0 mph 39% 0.00 in 0.00 W/m2
00:34 67.9 °F 42.1 °F 29.93 in East 5.0 mph 11.0 mph 39% 0.00 in 0.00 W/m2
00:39 67.9 °F 41.4 °F 29.93 in East 11.0 mph 11.0 mph 38% 0.00 in 0.00 W/m2
00:44 67.8 °F 42.0 °F 29.93 in East 7.0 mph 11.0 mph 39% 0.00 in 0.00 W/m2
00:49 67.8 °F 42.0 °F 29.93 in Calm   12.0 mph 39% 0.00 in 0.00 W/m2
00:54 67.7 °F 41.9 °F 29.93 in East 5.0 mph 11.0 mph 39% 0.00 in 0.00 W/m2
00:59 67.6 °F 41.1 °F 29.92 in East 7.0 mph 11.0 mph 38% 0.00 in 0.00 W/m2
01:04 67.6 °F 41.8 °F 29.92 in Calm   11.0 mph 39% 0.00 in 0.00 W/m2
01:09 67.6 °F 41.8 °F 29.92 in ESE 7.0 mph 12.0 mph 39% 0.00 in 0.00 W/m2
01:14 67.5 °F 41.0 °F 29.92 in ESE 6.0 mph 14.0 mph 38% 0.00 in 0.00 W/m2
01:19 67.6 °F 41.1 °F 29.92 in East 8.0 mph 14.0 mph 38% 0.00 in 0.00 W/m2
01:24 67.6 °F 41.8 °F 29.92 in East 6.0 mph 13.0 mph 39% 0.00 in 0.00 W/m2
01:29 67.6 °F 41.1 °F 29.92 in Calm   13.0 mph 38% 0.00 in 0.00 W/m2
01:34 67.5 °F 41.0 °F 29.93 in East 8.0 mph 13.0 mph 38% 0.00 in 0.00 W/m2
01:39 67.4 °F 40.9 °F 29.92 in Calm   11.0 mph 38% 0.00 in 0.00 W/m2
01:44 67.4 °F 40.9 °F 29.92 in East 6.0 mph 12.0 mph 38% 0.00 in 0.00 W/m2
01:49 67.2 °F 41.4 °F 29.92 in East 7.0 mph 11.0 mph 39% 0.00 in 0.00 W/m2
01:54 67.2 °F 40.8 °F 29.92 in East 9.0 mph 11.0 mph 38% 0.00 in 0.00 W/m2
01:59 67.1 °F 40.7 °F 29.92 in East 5.0 mph 11.0 mph 38% 0.00 in 0.00 W/m2
02:04 67.0 °F 40.6 °F 29.92 in ESE 7.0 mph 12.0 mph 38% 0.00 in 0.00 W/m2
02:09 67.0 °F 40.6 °F 29.92 in East 5.0 mph 11.0 mph 38% 0.00 in 0.00 W/m2
02:14 66.9 °F 40.5 °F 29.92 in Calm   11.0 mph 38% 0.00 in 0.00 W/m2
02:19 66.9 °F 40.5 °F 29.92 in ESE 2.0 mph 11.0 mph 38% 0.00 in 0.00 W/m2
02:24 66.8 °F 39.7 °F 29.92 in Calm   11.0 mph 37% 0.00 in 0.00 W/m2
02:29 66.8 °F 39.7 °F 29.92 in Calm   8.0 mph 37% 0.00 in 0.00 W/m2
02:34 66.7 °F 39.6 °F 29.92 in Calm   9.0 mph 37% 0.00 in 0.00 W/m2
02:39 66.7 °F 39.6 °F 29.92 in Calm   9.0 mph 37% 0.00 in 0.00 W/m2
02:44 66.7 °F 39.6 °F 29.92 in East 1.0 mph 8.0 mph 37% 0.00 in 0.00 W/m2
02:49 66.5 °F 40.1 °F 29.92 in East 4.0 mph 6.0 mph 38% 0.00 in 0.00 W/m2
02:54 66.3 °F 39.3 °F 29.92 in East 1.0 mph 9.0 mph 37% 0.00 in 0.00 W/m2
02:59 66.2 °F 39.9 °F 29.92 in East 8.0 mph 8.0 mph 38% 0.00 in 0.00 W/m2
03:04 66.0 °F 39.0 °F 29.92 in East 1.0 mph 6.0 mph 37% 0.00 in 0.00 W/m2
03:09 65.9 °F 38.9 °F 29.92 in East 1.0 mph 7.0 mph 37% 0.00 in 0.00 W/m2
03:14 65.9 °F 38.2 °F 29.92 in Calm   8.0 mph 36% 0.00 in 0.00 W/m2
03:19 65.8 °F 38.1 °F 29.92 in Calm   6.0 mph 36% 0.00 in 0.00 W/m2
03:24 65.6 °F 38.0 °F 29.92 in East 4.0 mph 6.0 mph 36% 0.00 in 0.00 W/m2
03:29 65.5 °F 37.9 °F 29.92 in Calm   8.0 mph 36% 0.00 in 0.00 W/m2
03:34 65.4 °F 37.8 °F 29.92 in Calm   6.0 mph 36% 0.00 in 0.00 W/m2
03:39 65.2 °F 38.3 °F 29.92 in East 2.0 mph 7.0 mph 37% 0.00 in 0.00 W/m2
03:44 65.1 °F 37.5 °F 29.92 in East 2.0 mph 8.0 mph 36% 0.00 in 0.00 W/m2
03:49 65.0 °F 37.4 °F 29.92 in Calm   7.0 mph 36% 0.00 in 0.00 W/m2
03:54 64.9 °F 37.3 °F 29.92 in Calm   6.0 mph 36% 0.00 in 0.00 W/m2
03:59 64.8 °F 37.2 °F 29.92 in Calm   8.0 mph 36% 0.00 in 0.00 W/m2
04:04 64.7 °F 37.2 °F 29.92 in ESE 5.0 mph 8.0 mph 36% 0.00 in 0.00 W/m2
04:09 64.5 °F 37.7 °F 29.92 in Calm   8.0 mph 37% 0.00 in 0.00 W/m2
04:14 64.4 °F 37.6 °F 29.92 in Calm   7.0 mph 37% 0.00 in 0.00 W/m2
04:19 64.3 °F 36.8 °F 29.92 in ESE 5.0 mph 7.0 mph 36% 0.00 in 0.00 W/m2
Foresthill Weather
 WU-history PHP script courtesy of   Juneau County Weather.
powered by Cumulus v1.9.3 (1059)
Ambient Weather VWS v14.00
Top Contact Website Map Copyright © 2007 - 2018 Foresthillweather.com Never base important decisions on this or any weather information obtained from the Internet